| time (UTC) | temp C | wind direction | speed KPH | gust KPH | rain 1hr cm | rain 24hr cm | rain mn cm | humidity % | barometer mb |
| 20260904143034 | 7 | 147 | 3.2 | 6.4 | 0.00 | 0.03 | 0.03 | 96 | 1014.3 |
| 20260904141531 | 7 | 168 | 3.2 | 6.4 | 0.00 | 0.03 | 0.03 | 96 | 1014.1 |
| 20260904140032 | 7 | 164 | 3.2 | 6.4 | 0.00 | 0.03 | 0.03 | 96 | 1013.9 |
| 20260904134535 | 7 | 157 | 4.8 | 8.0 | 0.00 | 0.03 | 0.03 | 96 | 1013.8 |
| 20260904133036 | 7 | 136 | 4.8 | 8.0 | 0.00 | 0.03 | 0.03 | 96 | 1013.7 |
| 20260904131530 | 7 | 136 | 4.8 | 6.4 | 0.00 | 0.03 | 0.03 | 96 | 1013.6 |
| 20260904130030 | 7 | 165 | 3.2 | 6.4 | 0.00 | 0.03 | 0.03 | 96 | 1013.4 |
| 20260904124606 | 7 | 180 | 3.2 | 4.8 | 0.03 | 0.03 | 0.03 | 96 | 1013.5 |
| 20260904123034 | 7 | 177 | 3.2 | 8.0 | 0.03 | 0.03 | 0.03 | 96 | 1013.4 |
| 20260904121531 | 7 | 145 | 4.8 | 6.4 | 0.03 | 0.03 | 0.03 | 96 | 1013.3 |
| 20260904113031 | 7 | 180 | 1.6 | 4.8 | 0.00 | 0.00 | 0.00 | 95 | 1013.1 |
| 20260904111535 | 7 | 180 | 0.0 | 4.8 | 0.00 | 0.00 | 0.00 | 95 | 1013.0 |
| 20260904110034 | 7 | 180 | 1.6 | 4.8 | 0.00 | 0.00 | 0.00 | 95 | 1012.8 |
| 20260904104531 | 7 | 157 | 1.6 | 6.4 | 0.00 | 0.00 | 0.00 | 95 | 1012.7 |
| 20260904103036 | 7 | 173 | 3.2 | 4.8 | 0.00 | 0.00 | 0.00 | 95 | 1012.6 |
| 20260904101608 | 7 | 157 | 3.2 | 6.4 | 0.00 | 0.00 | 0.00 | 95 | 1012.5 |
| 20260904100035 | 7 | 179 | 1.6 | 4.8 | 0.00 | 0.00 | 0.00 | 95 | 1012.4 |
| 20260904094532 | 7 | 181 | 3.2 | 6.4 | 0.00 | 0.00 | 0.00 | 95 | 1012.3 |
| 20260904093038 | 7 | 166 | 4.8 | 8.0 | 0.00 | 0.00 | 0.00 | 95 | 1012.3 |
| 20260904091530 | 7 | 141 | 6.4 | 8.0 | 0.00 | 0.00 | 0.00 | 95 | 1012.3 |
| 20260904090107 | 7 | 159 | 3.2 | 8.0 | 0.00 | 0.00 | 0.00 | 95 | 1012.3 |
| 20260904084609 | 7 | 178 | 6.4 | 12.9 | 0.00 | 0.00 | 0.00 | 95 | 1012.3 |
| 20260904083035 | 7 | 192 | 4.8 | 8.0 | 0.00 | 0.00 | 0.00 | 95 | 1012.1 |
| 20260904081530 | 7 | 176 | 4.8 | 11.3 | 0.00 | 0.00 | 0.00 | 95 | 1012.2 |
| 20260904080105 | 7 | 180 | 1.6 | 6.4 | 0.00 | 0.00 | 0.00 | 95 | 1012.2 |
| 20260904074531 | 7 | 180 | 3.2 | 4.8 | 0.00 | 0.00 | 0.00 | 95 | 1012.3 |
| 20260904073036 | 7 | 130 | 1.6 | 6.4 | 0.00 | 0.00 | 0.00 | 94 | 1012.2 |
| 20260904071535 | 7 | 192 | 1.6 | 6.4 | 0.00 | 0.00 | 0.00 | 94 | 1012.2 |
| 20260904070109 | 7 | 162 | 1.6 | 6.4 | 0.00 | 0.00 | 0.00 | 94 | 1012.1 |
| 20260904064535 | 7 | 157 | 0.0 | 3.2 | 0.00 | 0.00 | 0.00 | 94 | 1012.1 |
| 20260904063107 | 7 | 183 | 4.8 | 8.0 | 0.00 | 0.00 | 0.00 | 94 | 1012.1 |
| 20260904061535 | 7 | 201 | 4.8 | 9.7 | 0.00 | 0.00 | 0.00 | 94 | 1012.1 |
| 20260904054651 | 8 | 143 | 4.8 | 8.0 | 0.00 | 0.00 | 0.00 | 94 | 1012.0 |
| 20260904053032 | 8 | 186 | 3.2 | 6.4 | 0.00 | 0.00 | 0.00 | 94 | 1012.1 |
| 20260904043105 | 9 | 90 | 1.6 | 4.8 | 0.00 | 0.00 | 0.00 | 93 | 1012.4 |
| 20260904041533 | 9 | 169 | 1.6 | 6.4 | 0.00 | 0.00 | 0.00 | 92 | 1012.4 |
| 20260904040034 | 9 | 213 | 3.2 | 6.4 | 0.00 | 0.00 | 0.00 | 92 | 1012.3 |
| 20260904034536 | 9 | 178 | 3.2 | 9.7 | 0.00 | 0.00 | 0.00 | 91 | 1012.0 |
| 20260904033033 | 9 | 157 | 1.6 | 4.8 | 0.00 | 0.00 | 0.00 | 91 | 1012.0 |
| 20260904031535 | 9 | 157 | 3.2 | 4.8 | 0.00 | 0.03 | 0.00 | 90 | 1012.0 |
| 20260904030107 | 9 | 158 | 3.2 | 6.4 | 0.00 | 0.05 | 0.00 | 89 | 1011.9 |
| 20260904013148 | 11 | 270 | 1.6 | 4.8 | 0.00 | 0.36 | 0.00 | 87 | 1011.7 |
| 20260904011606 | 11 | 268 | 1.6 | 6.4 | 0.00 | 0.36 | 0.00 | 86 | 1011.7 |
| 20260904010035 | 11 | 266 | 3.2 | 9.7 | 0.00 | 0.41 | 0.00 | 85 | 1011.5 |
| 20260904004533 | 11 | 243 | 3.2 | 8.0 | 0.00 | 0.46 | 0.00 | 84 | 1011.4 |
| 20260904003030 | 11 | 251 | 3.2 | 8.0 | 0.00 | 0.48 | 0.00 | 82 | 1011.4 |
| 20260904001607 | 12 | 296 | 3.2 | 8.0 | 0.00 | 0.48 | 0.00 | 80 | 1011.3 |
| 20260904000032 | 12 | 329 | 6.4 | 12.9 | 0.00 | 0.58 | 0.00 | 79 | 1011.4 |
| 20260903233031 | 13 | 357 | 6.4 | 11.3 | 0.00 | 0.61 | 0.00 | 78 | 1011.5 |
| 20260903231533 | 13 | 331 | 6.4 | 11.3 | 0.00 | 0.61 | 0.00 | 78 | 1011.6 |
| 20260903230032 | 13 | 337 | 6.4 | 16.1 | 0.00 | 0.64 | 0.00 | 75 | 1011.5 |
| 20260903223106 | 15 | 307 | 6.4 | 14.5 | 0.00 | 0.66 | 0.00 | 74 | 1011.5 |
| 20260903221530 | 15 | 277 | 3.2 | 11.3 | 0.00 | 0.69 | 0.00 | 78 | 1011.6 |
| 20260903220032 | 15 | 259 | 1.6 | 6.4 | 0.00 | 0.69 | 0.00 | 77 | 1011.7 |
| 20260903214532 | 15 | 304 | 3.2 | 9.7 | 0.00 | 0.71 | 0.00 | 77 | 1011.7 |
| 20260903213035 | 15 | 286 | 3.2 | 8.0 | 0.00 | 0.71 | 0.00 | 78 | 1011.7 |
| 20260903211536 | 15 | 283 | 4.8 | 11.3 | 0.00 | 0.71 | 0.00 | 78 | 1011.7 |
| 20260903210033 | 15 | 289 | 4.8 | 14.5 | 0.00 | 0.71 | 0.00 | 77 | 1011.7 |
| 20260903204533 | 15 | 308 | 8.0 | 17.7 | 0.00 | 0.76 | 0.00 | 79 | 1011.7 |
| 20260903203030 | 13 | 311 | 8.0 | 17.7 | 0.00 | 0.79 | 0.00 | 81 | 1011.8 |
| 20260903201535 | 13 | 300 | 4.8 | 12.9 | 0.00 | 0.81 | 0.00 | 80 | 1011.9 |
| 20260903200030 | 13 | 290 | 6.4 | 16.1 | 0.00 | 0.84 | 0.00 | 79 | 1011.9 |
| 20260903194643 | 15 | 329 | 8.0 | 16.1 | 0.00 | 0.84 | 0.00 | 78 | 1012.0 |
| 20260903193030 | 15 | 312 | 4.8 | 14.5 | 0.00 | 0.84 | 0.00 | 80 | 1012.2 |
| 20260903191531 | 15 | 353 | 8.0 | 14.5 | 0.00 | 0.84 | 0.00 | 81 | 1012.3 |
| 20260903190031 | 13 | 339 | 6.4 | 12.9 | 0.00 | 0.84 | 0.00 | 81 | 1012.5 |
| 20260903184531 | 12 | 15 | 6.4 | 11.3 | 0.00 | 0.84 | 0.00 | 81 | 1012.6 |
| 20260903183029 | 12 | 12 | 4.8 | 8.0 | 0.00 | 0.84 | 0.00 | 82 | 1012.6 |
| 20260903181535 | 12 | 319 | 3.2 | 9.7 | 0.00 | 0.84 | 0.00 | 84 | 1012.5 |
| 20260903180031 | 12 | 331 | 3.2 | 11.3 | 0.00 | 0.84 | 0.00 | 85 | 1012.6 |
| 20260903173035 | 11 | 346 | 6.4 | 11.3 | 0.00 | 0.84 | 0.00 | 88 | 1012.5 |
| 20260903170032 | 11 | 6 | 4.8 | 9.7 | 0.00 | 0.84 | 0.00 | 89 | 1012.6 |
| 20260903164606 | 10 | 307 | 3.2 | 9.7 | 0.00 | 0.84 | 0.00 | 91 | 1012.6 |
| 20260903161531 | 9 | 292 | 0.0 | 8.0 | 0.00 | 0.84 | 0.00 | 92 | 1012.6 |
| 20260903160105 | 9 | 332 | 0.0 | 6.4 | 0.00 | 0.84 | 0.00 | 92 | 1012.7 |
| 20260903154535 | 9 | 278 | 1.6 | 8.0 | 0.00 | 0.84 | 0.00 | 92 | 1012.6 |
| 20260903153029 | 8 | 196 | 3.2 | 8.0 | 0.00 | 0.84 | 0.00 | 92 | 1012.5 |
| 20260903150035 | 7 | 113 | 3.2 | 9.7 | 0.00 | 0.84 | 0.00 | 94 | 1012.6 |
| 20260903144606 | 7 | 175 | 4.8 | 11.3 | 0.00 | 0.84 | 0.00 | 95 | 1012.4 |